TimeMST,TemperatureF,Dew PointF,Humidity,Sea Level PressureIn,VisibilityMPH,Wind Direction,Wind SpeedMPH,Gust SpeedMPH,PrecipitationIn,Events,Conditions,WindDirDegrees,DateUTC
12:53 AM,64.9,30.9,28,29.99,10.0,Calm,Calm,-,N/A,,Clear,0,2012-10-01 07:53:00
1:53 AM,66.0,30.0,26,29.99,10.0,South,3.5,-,N/A,,Clear,190,2012-10-01 08:53:00
2:53 AM,64.9,28.9,26,29.99,10.0,SSW,3.5,-,N/A,,Clear,210,2012-10-01 09:53:00
3:53 AM,66.0,28.0,24,30.00,10.0,SSW,4.6,-,N/A,,Clear,210,2012-10-01 10:53:00
4:53 AM,64.9,28.0,25,30.01,10.0,SSW,4.6,-,N/A,,Clear,210,2012-10-01 11:53:00
5:53 AM,62.1,28.9,29,30.04,10.0,Calm,Calm,-,N/A,,Clear,0,2012-10-01 12:53:00
6:53 AM,63.0,30.0,29,30.07,10.0,Calm,Calm,-,N/A,,Clear,0,2012-10-01 13:53:00
7:53 AM,69.1,30.0,23,30.09,10.0,NNW,4.6,-,N/A,,Clear,330,2012-10-01 14:53:00
8:53 AM,72.0,28.0,20,30.09,10.0,Variable,3.5,-,N/A,,Clear,0,2012-10-01 15:53:00
9:53 AM,73.9,30.0,20,30.08,10.0,Variable,3.5,-,N/A,,Clear,0,2012-10-01 16:53:00
10:53 AM,78.1,28.9,17,30.07,10.0,Calm,Calm,-,N/A,,Clear,0,2012-10-01 17:53:00
11:53 AM,81.0,28.9,15,30.05,10.0,NE,4.6,-,N/A,,Clear,40,2012-10-01 18:53:00
12:53 PM,82.9,28.9,14,30.02,10.0,ENE,4.6,-,N/A,,Clear,60,2012-10-01 19:53:00
1:53 PM,84.0,28.0,13,29.99,10.0,Variable,3.5,-,N/A,,Clear,0,2012-10-01 20:53:00
2:53 PM,86.0,28.0,12,29.96,10.0,NNE,6.9,-,N/A,,Clear,30,2012-10-01 21:53:00
3:53 PM,84.9,28.0,13,29.94,10.0,North,3.5,-,N/A,,Clear,350,2012-10-01 22:53:00
4:53 PM,84.2,26.6,12,30.11,10.0,Calm,Calm,-,N/A,,Clear,0,2012-10-01 23:53:00
5:53 PM,82.9,27.0,13,29.93,10.0,Calm,Calm,-,N/A,,Clear,0,2012-10-02 00:53:00
6:53 PM,75.9,32.0,20,29.94,10.0,Calm,Calm,-,N/A,,Clear,0,2012-10-02 01:53:00
7:53 PM,73.9,30.9,21,29.94,10.0,Calm,Calm,-,N/A,,Clear,0,2012-10-02 02:53:00
8:53 PM,73.9,28.9,19,29.94,10.0,South,3.5,-,N/A,,Clear,180,2012-10-02 03:53:00
9:53 PM,71.1,30.0,22,29.94,10.0,SSW,4.6,-,N/A,,Clear,210,2012-10-02 04:53:00
10:53 PM,69.1,30.0,23,29.94,10.0,Calm,Calm,-,N/A,,Clear,0,2012-10-02 05:53:00
11:53 PM,64.9,30.9,28,29.94,10.0,Calm,Calm,-,N/A,,Clear,0,2012-10-02 06:53:00